TimeEDT,TemperatureF,Dew PointF,Humidity,Sea Level PressureIn,VisibilityMPH,Wind Direction,Wind SpeedMPH,Gust SpeedMPH,PrecipitationIn,Events,Conditions,WindDirDegrees,DateUTC
12:56 AM,73.9,70.0,87,30.17,10.0,South,6.9,-,N/A,,Clear,170,2013-07-05 04:56:00
1:56 AM,72.9,68.9,87,30.17,10.0,South,4.6,-,N/A,,Scattered Clouds,180,2013-07-05 05:56:00
2:56 AM,72.9,68.9,87,30.17,10.0,South,6.9,-,N/A,,Clear,180,2013-07-05 06:56:00
3:56 AM,72.9,68.9,87,30.17,10.0,South,5.8,-,N/A,,Partly Cloudy,180,2013-07-05 07:56:00
4:56 AM,72.0,68.9,90,30.17,10.0,South,5.8,-,N/A,,Clear,170,2013-07-05 08:56:00
5:56 AM,72.0,68.9,90,30.18,10.0,Calm,Calm,-,N/A,,Overcast,0,2013-07-05 09:56:00
6:29 AM,71.6,69.8,94,30.20,10.0,Calm,Calm,-,N/A,,Mostly Cloudy,0,2013-07-05 10:29:00
6:56 AM,73.9,68.9,84,30.17,10.0,Calm,Calm,-,N/A,,Scattered Clouds,0,2013-07-05 10:56:00
7:56 AM,77.0,70.0,79,30.19,10.0,SSW,4.6,-,N/A,,Scattered Clouds,200,2013-07-05 11:56:00
8:56 AM,79.9,70.0,72,30.18,10.0,South,6.9,-,N/A,,Scattered Clouds,190,2013-07-05 12:56:00
9:56 AM,82.9,70.0,65,30.17,10.0,SSW,4.6,-,N/A,,Mostly Cloudy,200,2013-07-05 13:56:00
10:56 AM,83.8,70.9,65,30.16,10.0,South,8.1,-,N/A,,Mostly Cloudy,180,2013-07-05 14:56:00
11:56 AM,84.9,70.9,63,30.16,10.0,SW,6.9,-,N/A,,Mostly Cloudy,220,2013-07-05 15:56:00
12:56 PM,86.0,68.9,56,30.14,10.0,Variable,4.6,-,N/A,,Mostly Cloudy,0,2013-07-05 16:56:00
1:56 PM,86.9,68.0,53,30.12,10.0,SW,11.5,-,N/A,,Mostly Cloudy,220,2013-07-05 17:56:00
2:56 PM,88.9,66.9,48,30.11,10.0,SW,13.8,17.3,0.00,,Mostly Cloudy,230,2013-07-05 18:56:00
3:56 PM,88.0,66.9,49,30.10,10.0,SW,16.1,-,N/A,,Mostly Cloudy,230,2013-07-05 19:56:00
4:07 PM,87.8,68.0,52,30.12,10.0,WSW,13.8,-,N/A,,Mostly Cloudy,250,2013-07-05 20:07:00
4:56 PM,86.0,68.0,55,30.09,10.0,SSW,8.1,-,N/A,,Scattered Clouds,200,2013-07-05 20:56:00
5:56 PM,86.9,68.9,55,30.08,10.0,SW,12.7,-,N/A,,Scattered Clouds,220,2013-07-05 21:56:00
6:56 PM,86.0,68.0,55,30.08,10.0,SW,10.4,-,N/A,,Scattered Clouds,230,2013-07-05 22:56:00
7:56 PM,83.8,68.0,59,30.07,10.0,SW,8.1,-,N/A,,Mostly Cloudy,220,2013-07-05 23:56:00
8:56 PM,77.9,70.9,79,30.10,10.0,West,8.1,-,N/A,,Mostly Cloudy,270,2013-07-06 00:56:00
9:56 PM,73.9,68.0,82,30.13,10.0,NNW,3.5,-,N/A,,Mostly Cloudy,330,2013-07-06 01:56:00
10:56 PM,72.0,68.9,90,30.14,10.0,Calm,Calm,-,N/A,,Overcast,0,2013-07-06 02:56:00
11:56 PM,72.0,68.9,90,30.15,10.0,Calm,Calm,-,N/A,,Overcast,0,2013-07-06 03:56:00